Showing default

CENTISPACE-2 S3, 68352

Orbit data source: Space-Track

CENTISPACE-2 S3, 68352 is a payload satellite owned by Centispace (CN) in LEO that was launched on Sun, 22 Mar 2026 UTC via a JIELONG-3 launch vehicle from the Yellow Sea Launch Area, China (YSLA). Payload-class satellites include a variety of spacecraft equipped with specific instruments for various scientific and technological missions. These include communications satellites like Starlink; space stations such as the ISS; scientific satellites like the Hubble; Earth observation satellites from companies like Planet Labs, Umbra, and HawkEye 360; GPS; miniature CubeSats for education and research; and military/defense satellites.

Loading next visibility...
Identifier
68352, 2026-060C
Orbit
LEO
Country
Flag of CNCN / PRC
Related business
Manufacturer
DFH Shenzhen
Mission
Operational spacecraft
Bus & Motor
WK01, Unknown motor
Mass
140 kg wet, 140 kg dry
Launch date (UTC)
2026-03-22 (3 months ago)
Launch vehicle
JIELONG-3
Launch site
Yellow Sea Launch Area, China (YSLA)
Object type
Payload
Rocket body
Debris
Shape & HBR
Unknown shape, 1.0 m
Radar Cross Section
Large (>1 m²)

Expand to show TLE details & history
Last TLE update: 16 hours ago

TLE from 16 hours ago
0 CENTISPACE-2 S3
1 68352U 26060C   26171.31889419  .00000559  00000-0  13829-3 0  9993
2 68352  54.9817  24.3938 0011605 305.0938  54.8969 14.65256820 13217
Epoch: 2026-06-20T07:39Z
TLE epoch observation values (Epoch: 2026-06-20T07:39:12.458Z)
Latitude
0.00001°
Longitude
1.05667°
Altitude
672.612 km
Speed
7.524 km/s
True Right ascension
01h 37m 34s
True Declination
0° 00' 00"
Sunlit
Object was in daylight at epoch
Visualization orbit readout
Latitude
Unknown
Longitude
Unknown
Altitude
Unknown
Speed
Unknown
Apparent Right ascension
Unknown
Apparent Declination
Unknown
Sunlit
N/A
Visualization observer readout
Local Sidereal Time
10:17:57
Azimuth
Unknown
Elevation
Unknown
Doppler factor
Unknown
Orbital elements
Apogee altitude
684.404 km
Perigee altitude
668.031 km
Semi-major axis
7,054.354 km
Eccentricity
0.00116
Inclination
54.9817°
RAAN
24.3938°
Arg. of periapsis
305.0938°
True anomaly
55.00579°
Mean anomaly
54.8969°
Eccentric anomaly
54.95133°
Mean motion
3.66317 °/min
Orbital period
98.28 mins
BSTAR
0.00013829
Loading maneuver chart data...
Computing Atmospheric mass density...
Loading historical data...
Loading historical data...
Loading historical data...
Loading historical data...
Loading historical data...
Loading historical data...
Loading historical data...

Documentation

Showing up to 5 results
|